Location: Ferchesar
(52.6477°N, 12.4298°E)
Time: 23:23:01
(UTC+01:00)

TIGRISAT - Pass Details

Date: 21 October 2021
Orbit: 603 x 689 km, 97.7° (Epoch: 30 November)

Event Time Altitude Azimuth Distance (km) Brightness Sun altitude
Rises 20:13:16 0° 15° (NNE) 3,005 ? -20.6°
Reaches altitude 10° 20:15:33 10° 19° (NNE) 2,074 ? -20.9°
Maximum altitude 20:20:03 65° 101° (ESE) 710 ? -21.6°
Drops below altitude 10° 20:24:23 10° 184° (S) 2,005 ? -22.2°
Sets 20:26:34 0° 187° (S) 2,894 ? -22.5°
